QPF
0.00 0.00 0.00 0.00 0.00 0.00 0.00 0.00 0.00 0.00 0.01 0.01 0.01 0.03 0.01 0.00 0.00 0.00 0.00 0.00 0.00 0.00 0.00 0.00 0.00 0.00 0.00 0.00 0.00 0.00 0.00 0.00 0.00 0.00 0.00 0.00 0.00 0.00 0.00 0.00 0.00 0.00 0.00 0.00 0.00
0.00 0.00 0.00 0.00 0.00 0.00 0.00 0.00 0.00 0.00 0.01 0.01 0.01 0.03 0.03 0.01 0.00 0.00 0.00 0.00 0.00 0.00 0.00 0.00 0.00 0.00 0.00 0.00 0.00 0.00 0.00 0.00 0.00 0.00 0.00 0.00 0.00 0.00 0.00 0.00 0.00 0.00 0.00 0.00 0.00
0.00 0.00 0.00 0.00 0.00 0.00 0.00 0.00 0.00 0.00 0.00 0.01 0.01 0.03 0.05 0.01 0.00 0.00 0.00 0.00 0.00 0.00 0.00 0.00 0.00 0.00 0.00 0.00 0.00 0.00 0.00 0.00 0.00 0.00 0.00 0.00 0.00 0.00 0.00 0.00 0.00 0.00 0.00 0.00 0.00
0.00 0.00 0.00 0.00 0.00 0.00 0.00 0.00 0.00 0.00 0.01 0.02 0.04 0.05 0.07 0.03 0.00 0.00 0.00 0.00 0.00 0.00 0.00 0.00 0.00 0.00 0.00 0.00 0.00 0.00 0.00 0.00 0.00 0.00 0.00 0.00 0.00 0.00 0.00 0.00 0.00 0.00 0.00 0.00 0.00
0.00 0.00 0.00 0.00 0.00 0.00 0.00 0.00 0.01 0.01 0.00 0.03 0.07 0.07 0.06 0.02 0.00 0.00 0.00 0.00 0.00 0.00 0.01 0.01 0.00 0.00 0.00 0.00 0.00 0.00 0.00 0.00 0.00 0.00 0.00 0.00 0.00 0.00 0.00 0.00 0.00 0.00 0.00 0.00 0.00
0.00 0.00 0.00 0.00 0.00 0.00 0.00 0.00 0.00 0.01 0.03 0.03 0.05 0.09 0.04 0.00 0.00 0.00 0.00 0.00 0.00 0.00 0.01 0.01 0.00 0.00 0.00 0.00 0.00 0.00 0.00 0.00 0.00 0.00 0.00 0.00 0.00 0.00 0.00 0.00 0.00 0.00 0.00 0.00 0.00
0.01 0.00 0.00 0.00 0.00 0.00 0.00 0.00 0.00 0.01 0.04 0.05 0.08 0.06 0.02 0.00 0.00 0.00 0.00 0.00 0.00 0.00 0.01 0.00 0.00 0.00 0.00 0.00 0.00 0.00 0.00 0.00 0.00 0.00 0.00 0.00 0.00 0.00 0.00 0.00 0.00 0.00 0.00 0.00 0.00
0.02 0.01 0.01 0.01 0.00 0.00 0.00 0.00 0.00 0.00 0.03 0.07 0.14 0.08 0.01 0.00 0.00 0.00 0.00 0.00 0.00 0.00 0.03 0.08 0.01 0.00 0.00 0.00 0.00 0.00 0.00 0.00 0.00 0.00 0.00 0.00 0.00 0.00 0.00 0.00 0.00 0.00 0.00 0.00 0.00
0.01 0.00 0.01 0.02 0.02 0.00 0.00 0.03 0.03 0.01 0.03 0.16 0.15 0.06 0.01 0.00 0.00 0.00 0.00 0.00 0.00 0.00 0.02 0.13 0.04 0.00 0.00 0.00 0.00 0.00 0.00 0.00 0.00 0.00 0.00 0.00 0.00 0.00 0.00 0.00 0.00 0.00 0.00 0.00 0.00
0.00 0.00 0.00 0.01 0.04 0.02 0.01 0.03 0.05 0.06 0.07 0.14 0.12 0.07 0.00 0.00 0.00 0.00 0.00 0.00 0.00 0.00 0.04 0.13 0.05 0.00 0.00 0.00 0.00 0.00 0.00 0.00 0.00 0.00 0.00 0.00 0.00 0.00 0.00 0.00 0.00 0.00 0.00 0.00 0.00
0.00 0.00 0.02 0.01 0.02 0.09 0.07 0.02 0.01 0.02 0.03 0.01 0.01 0.01 0.01 0.01 0.00 0.00 0.00 0.00 0.01 0.00 0.05 0.21 0.04 0.01 0.00 0.00 0.00 0.00 0.00 0.00 0.00 0.00 0.00 0.00 0.00 0.00 0.00 0.00 0.00 0.00 0.00 0.00 0.00
0.01 0.02 0.07 0.06 0.06 0.14 0.13 0.00 0.00 0.01 0.01 0.00 0.01 0.01 0.02 0.02 0.01 0.00 0.00 0.00 0.01 0.00 0.07 0.29 0.08 0.00 0.00 0.00 0.00 0.00 0.00 0.00 0.00 0.00 0.00 0.00 0.00 0.00 0.00 0.00 0.00 0.00 0.00 0.00 0.00
0.01 0.08 0.17 0.17 0.14 0.09 0.07 0.03 0.05 0.08 0.03 0.00 0.00 0.00 0.02 0.04 0.01 0.01 0.00 0.01 0.00 0.00 0.04 0.15 0.10 0.00 0.00 0.00 0.00 0.00 0.00 0.00 0.00 0.00 0.00 0.00 0.00 0.00 0.00 0.00 0.00 0.00 0.00 0.00 0.00
0.01 0.11 0.23 0.26 0.23 0.13 0.08 0.12 0.12 0.17 0.13 0.04 0.01 0.00 0.01 0.02 0.01 0.05 0.00 0.03 0.01 0.00 0.01 0.06 0.08 0.02 0.01 0.00 0.00 0.00 0.00 0.00 0.00 0.00 0.00 0.00 0.00 0.00 0.00 0.00 0.00 0.00 0.00 0.00 0.00
0.00 0.04 0.24 0.40 0.28 0.13 0.08 0.16 0.14 0.20 0.10 0.00 0.00 0.02 0.02 0.01 0.01 0.03 0.02 0.04 0.01 0.00 0.01 0.05 0.06 0.04 0.04 0.02 0.00 0.00 0.00 0.00 0.00 0.00 0.00 0.00 0.00 0.00 0.00 0.00 0.00 0.00 0.00 0.00 0.00
0.00 0.00 0.15 0.45 0.32 0.16 0.14 0.14 0.13 0.23 0.24 0.01 0.02 0.02 0.02 0.01 0.03 0.04 0.08 0.09 0.04 0.00 0.01 0.01 0.01 0.01 0.02 0.00 0.00 0.00 0.00 0.00 0.00 0.00 0.00 0.00 0.00 0.00 0.00 0.00 0.00 0.00 0.00 0.00 0.00
0.00 0.00 0.02 0.31 0.41 0.31 0.17 0.12 0.14 0.16 0.17 0.03 0.01 0.00 0.00 0.00 0.05 0.06 0.13 0.17 0.14 0.01 0.01 0.00 0.00 0.00 0.00 0.01 0.01 0.00 0.00 0.00 0.00 0.00 0.00 0.00 0.00 0.00 0.00 0.00 0.00 0.00 0.00 0.00 0.00
0.00 0.00 0.01 0.07 0.43 0.35 0.26 0.16 0.12 0.09 0.11 0.13 0.02 0.01 0.00 0.03 0.04 0.05 0.12 0.20 0.10 0.00 0.00 0.01 0.03 0.01 0.00 0.00 0.02 0.00 0.00 0.00 0.00 0.00 0.00 0.00 0.00 0.00 0.00 0.00 0.00 0.00 0.00 0.00 0.00
0.00 0.00 0.01 0.00 0.30 0.34 0.26 0.15 0.09 0.04 0.05 0.13 0.06 0.04 0.02 0.08 0.06 0.06 0.15 0.12 0.04 0.00 0.00 0.00 0.00 0.00 0.00 0.00 0.01 0.00 0.00 0.00 0.00 0.00 0.00 0.00 0.00 0.00 0.00 0.00 0.00 0.00 0.00 0.00 0.00
0.00 0.00 0.00 0.02 0.15 0.39 0.32 0.17 0.15 0.03 0.01 0.01 0.05 0.08 0.02 0.09 0.05 0.07 0.16 0.07 0.01 0.00 0.00 0.00 0.00 0.00 0.00 0.00 0.00 0.00 0.00 0.00 0.00 0.00 0.00 0.00 0.00 0.00 0.00 0.00 0.00 0.00 0.00 0.00 0.00
0.00 0.00 0.00 0.06 0.16 0.37 0.30 0.25 0.14 0.01 0.01 0.02 0.01 0.03 0.00 0.03 0.02 0.05 0.11 0.06 0.00 0.00 0.00 0.00 0.00 0.00 0.00 0.00 0.00 0.00 0.00 0.00 0.00 0.00 0.00 0.00 0.00 0.00 0.00 0.00 0.00 0.00 0.00 0.00 0.00
0.00 0.00 0.02 0.08 0.19 0.23 0.28 0.26 0.05 0.01 0.04 0.06 0.01 0.00 0.00 0.01 0.02 0.07 0.06 0.02 0.00 0.00 0.00 0.00 0.00 0.00 0.00 0.00 0.00 0.00 0.00 0.00 0.00 0.00 0.00 0.00 0.00 0.00 0.00 0.00 0.00 0.00 0.00 0.00 0.00
0.00 0.00 0.01 0.06 0.09 0.14 0.14 0.06 0.01 0.05 0.07 0.02 0.00 0.00 0.00 0.00 0.03 0.05 0.03 0.00 0.00 0.00 0.00 0.00 0.00 0.00 0.00 0.00 0.00 0.00 0.00 0.00 0.00 0.00 0.00 0.00 0.00 0.00 0.00 0.00 0.00 0.00 0.00 0.00 0.00
0.00 0.00 0.01 0.01 0.01 0.05 0.08 0.11 0.09 0.06 0.01 0.01 0.00 0.00 0.00 0.00 0.01 0.01 0.01 0.00 0.00 0.00 0.00 0.00 0.00 0.00 0.00 0.00 0.00 0.00 0.00 0.00 0.00 0.00 0.00 0.00 0.00 0.00 0.00 0.00 0.00 0.00 0.00 0.00 0.00
0.00 0.00 0.00 0.00 0.00 0.01 0.01 0.08 0.06 0.01 0.00 0.00 0.01 0.00 0.00 0.00 0.00 0.00 0.00 0.00 0.00 0.00 0.00 0.00 0.00 0.00 0.00 0.00 0.00 0.00 0.00 0.00 0.00 0.00 0.00 0.00 0.00 0.00 0.00 0.00 0.00 0.00 0.00 0.00 0.00
0.00 0.00 0.00 0.00 0.00 0.00 0.00 0.02 0.02 0.00 0.01 0.01 0.00 0.00 0.00 0.00 0.00 0.00 0.00 0.00 0.00 0.00 0.00 0.00 0.00 0.00 0.00 0.00 0.00 0.00 0.00 0.00 0.00 0.00 0.00 0.00 0.00 0.00 0.00 0.00 0.00 0.00 0.00 0.00 0.00
0.00 0.00 0.00 0.00 0.00 0.00 0.00 0.00 0.00 0.00 0.02 0.00 0.00 0.00 0.00 0.00 0.00 0.00 0.00 0.00 0.00 0.00 0.00 0.00 0.00 0.00 0.00 0.00 0.00 0.00 0.00 0.00 0.00 0.00 0.00 0.00 0.00 0.00 0.00 0.00 0.00 0.00 0.00 0.00 0.00
MSLP
1014.36 1014.23 1014.13 1014.05 1013.99 1014.01 1014.01 1013.93 1013.96 1014.16 1014.27 1014.46 1014.44 1014.52 1015.09 1015.25 1015.51 1015.82 1015.91 1015.34 1014.82 1013.94 1013.87 1013.87 1013.91 1014.24 1014.34 1014.41 1014.65 1015.40 1016.21 1016.42 1015.83 1015.43 1014.20 1013.31 1013.06 1012.15 1011.57 1011.42 1010.59 1009.88 1009.81 1009.63 1009.51
1014.31 1014.23 1014.14 1014.05 1013.90 1014.00 1013.98 1013.92 1013.94 1014.06 1014.17 1014.46 1014.49 1014.61 1014.97 1015.25 1015.65 1015.47 1014.91 1014.64 1014.46 1014.18 1014.42 1014.21 1014.07 1014.37 1014.64 1014.62 1014.86 1015.41 1015.98 1015.50 1014.61 1014.21 1013.73 1013.28 1013.12 1012.53 1012.00 1011.48 1010.62 1009.91 1009.63 1009.57 1009.63
1014.27 1014.29 1014.06 1013.86 1013.82 1013.77 1013.84 1013.77 1013.89 1013.93 1014.07 1014.25 1014.40 1014.66 1015.02 1015.31 1015.57 1014.19 1013.51 1013.55 1013.89 1014.05 1014.48 1014.45 1014.18 1014.30 1014.83 1014.79 1014.86 1015.12 1015.23 1014.64 1013.98 1013.51 1013.43 1013.20 1012.82 1012.43 1012.17 1011.56 1010.61 1010.13 1009.86 1009.69 1009.95
1014.16 1014.19 1013.95 1013.85 1013.74 1013.66 1013.70 1013.68 1013.69 1013.83 1013.96 1014.21 1014.46 1014.61 1015.06 1015.39 1015.11 1013.27 1012.66 1012.74 1013.17 1013.85 1014.27 1014.23 1014.18 1014.38 1014.63 1014.76 1014.46 1014.75 1014.36 1014.15 1013.62 1013.19 1013.25 1013.16 1012.82 1012.59 1012.13 1011.10 1010.16 1010.19 1010.13 1010.00 1010.10
1013.95 1013.89 1013.74 1013.69 1013.61 1013.58 1013.58 1013.54 1013.47 1013.74 1013.90 1014.00 1014.24 1014.50 1015.34 1015.28 1013.94 1012.92 1012.80 1012.85 1012.81 1013.74 1013.84 1013.89 1013.82 1014.06 1014.23 1014.23 1014.30 1014.41 1014.05 1013.62 1013.22 1013.19 1013.33 1013.05 1012.70 1012.60 1011.25 1010.66 1010.08 1010.15 1010.05 1010.11 1010.20
1013.70 1013.57 1013.49 1013.50 1013.42 1013.41 1013.46 1013.52 1013.37 1013.45 1013.59 1013.82 1014.13 1014.46 1015.24 1014.69 1013.24 1012.96 1013.07 1013.24 1013.16 1013.53 1013.46 1013.47 1013.19 1013.20 1013.65 1013.70 1013.85 1013.61 1013.59 1013.41 1013.32 1013.07 1012.99 1012.81 1011.99 1012.10 1010.41 1010.20 1010.12 1010.03 1010.07 1010.00 1010.08
1013.33 1013.21 1013.08 1013.07 1013.17 1013.15 1013.12 1013.16 1013.23 1013.43 1013.48 1013.62 1013.96 1014.55 1014.44 1012.92 1012.86 1012.88 1012.79 1012.92 1013.02 1013.18 1013.09 1013.00 1012.99 1012.81 1012.81 1013.34 1013.25 1013.40 1013.66 1013.53 1013.21 1012.85 1012.50 1012.33 1011.47 1010.91 1009.74 1010.09 1010.14 1010.24 1010.22 1010.08 1010.21
1012.90 1012.93 1012.80 1012.74 1012.75 1012.80 1012.81 1012.88 1013.00 1013.20 1013.30 1013.52 1013.93 1014.50 1013.39 1012.60 1012.80 1013.20 1013.13 1012.81 1012.68 1012.88 1013.19 1012.46 1012.62 1012.63 1012.65 1012.79 1013.15 1013.61 1013.96 1013.79 1013.06 1012.72 1012.26 1012.50 1010.51 1010.11 1009.49 1009.89 1010.05 1010.39 1010.74 1010.70 1010.76
1012.58 1012.60 1012.49 1012.44 1012.35 1012.35 1012.68 1012.92 1012.93 1013.15 1013.34 1013.59 1014.25 1014.20 1013.22 1012.17 1012.44 1012.54 1012.90 1013.07 1012.78 1012.78 1012.90 1012.57 1012.51 1012.64 1012.64 1012.84 1013.49 1013.86 1013.99 1013.93 1013.43 1012.57 1012.61 1012.71 1011.46 1009.95 1009.86 1009.73 1010.20 1010.69 1011.16 1011.34 1011.11
1012.15 1012.25 1012.13 1012.02 1011.91 1011.83 1012.37 1012.69 1012.82 1013.28 1013.57 1013.84 1014.05 1014.48 1013.08 1011.93 1011.85 1011.85 1012.19 1012.73 1012.84 1012.84 1013.05 1012.53 1012.55 1012.71 1012.82 1012.94 1013.02 1013.72 1014.01 1013.83 1013.60 1012.92 1012.76 1012.50 1011.78 1010.34 1010.05 1010.09 1010.34 1010.91 1011.38 1011.71 1011.75
1011.69 1011.84 1011.81 1011.65 1011.57 1011.56 1012.14 1013.04 1013.55 1013.67 1013.27 1012.50 1012.75 1012.51 1011.71 1011.48 1011.36 1011.50 1011.67 1012.36 1012.73 1012.71 1011.92 1011.81 1011.64 1011.40 1012.14 1012.44 1012.99 1013.30 1013.72 1013.85 1013.23 1012.97 1012.99 1012.36 1011.84 1010.60 1009.96 1010.17 1010.35 1010.99 1011.70 1012.16 1012.08
1011.23 1011.40 1011.46 1011.26 1011.11 1011.01 1011.36 1011.83 1011.60 1011.62 1012.51 1012.30 1012.25 1012.04 1011.63 1011.56 1011.36 1010.99 1011.19 1011.94 1012.02 1011.89 1011.87 1011.34 1010.99 1011.37 1012.29 1012.75 1013.06 1013.34 1013.69 1013.82 1013.31 1013.01 1013.12 1012.39 1011.74 1010.55 1010.09 1009.95 1010.11 1010.94 1011.84 1012.30 1012.42
1010.84 1010.90 1010.88 1010.53 1010.44 1010.63 1010.71 1010.86 1011.16 1011.54 1011.89 1011.65 1011.61 1011.42 1011.24 1011.62 1011.03 1010.41 1010.78 1011.16 1011.65 1011.95 1011.40 1010.27 1010.51 1011.36 1012.15 1012.66 1013.08 1013.30 1013.60 1013.75 1013.77 1013.29 1012.91 1012.80 1011.52 1010.70 1010.11 1010.13 1010.47 1011.14 1011.83 1012.48 1012.63
1010.30 1010.39 1010.36 1010.04 1010.59 1010.14 1010.31 1010.78 1011.24 1011.75 1011.71 1011.17 1011.00 1010.29 1010.53 1011.03 1010.53 1009.81 1010.10 1010.62 1011.03 1011.23 1011.48 1011.19 1010.75 1010.72 1011.59 1012.30 1012.62 1013.27 1013.18 1013.57 1013.91 1014.44 1014.23 1013.59 1012.77 1011.49 1010.47 1010.53 1010.89 1011.44 1012.12 1012.57 1012.85
1010.08 1009.90 1009.99 1009.80 1009.70 1009.91 1009.75 1010.44 1011.22 1011.82 1011.07 1009.72 1009.76 1009.28 1009.35 1010.55 1009.53 1009.39 1009.46 1010.17 1010.37 1010.39 1010.94 1010.51 1010.84 1010.77 1011.42 1011.53 1012.21 1012.79 1012.82 1013.46 1013.95 1014.61 1014.71 1014.18 1014.27 1010.97 1010.74 1010.82 1011.16 1011.69 1012.27 1012.83 1013.15
1009.62 1009.58 1009.63 1009.74 1009.52 1009.35 1009.39 1010.26 1011.47 1011.54 1009.90 1009.38 1008.75 1009.20 1009.80 1009.95 1009.48 1009.46 1009.77 1010.06 1009.74 1010.37 1010.60 1010.64 1010.54 1010.72 1010.96 1011.46 1011.75 1012.35 1013.20 1013.72 1014.51 1014.90 1014.88 1013.80 1013.77 1011.44 1010.69 1010.12 1010.78 1011.57 1012.21 1012.89 1013.25
1008.96 1009.16 1009.28 1009.09 1009.06 1009.37 1009.69 1010.41 1010.80 1009.96 1009.47 1008.65 1008.59 1008.86 1009.03 1009.37 1009.49 1009.16 1009.77 1010.04 1009.07 1009.86 1010.58 1010.64 1010.42 1010.33 1010.30 1011.35 1012.05 1012.28 1013.48 1014.35 1015.10 1015.29 1014.52 1013.72 1013.75 1010.92 1009.58 1009.56 1009.86 1010.78 1011.91 1012.77 1013.32
1008.32 1008.57 1008.51 1008.48 1008.43 1009.06 1009.62 1009.91 1009.20 1007.43 1007.80 1007.30 1007.84 1008.56 1008.76 1008.78 1009.08 1009.17 1009.48 1009.61 1009.35 1008.50 1009.65 1010.27 1011.45 1010.45 1010.23 1010.27 1011.71 1012.40 1012.93 1013.68 1014.26 1014.87 1014.37 1013.79 1012.58 1009.79 1009.36 1009.37 1009.57 1009.99 1011.15 1012.59 1013.38
1007.76 1007.74 1007.59 1007.52 1007.92 1008.63 1009.57 1008.88 1007.16 1005.51 1005.72 1006.14 1007.30 1007.88 1008.21 1008.28 1008.39 1008.87 1009.06 1008.61 1008.25 1008.13 1008.49 1009.62 1010.15 1010.11 1009.75 1009.76 1011.23 1012.05 1012.47 1012.80 1013.71 1014.58 1014.46 1013.03 1011.32 1009.44 1009.20 1009.37 1009.77 1010.43 1011.37 1012.56 1013.16
1007.41 1007.41 1006.86 1006.65 1007.51 1008.44 1008.65 1007.36 1005.91 1004.25 1004.53 1005.39 1005.77 1006.45 1006.85 1007.32 1007.67 1008.57 1008.51 1007.76 1007.55 1007.43 1007.29 1008.57 1009.90 1009.81 1009.67 1010.00 1010.97 1011.06 1011.62 1012.93 1013.66 1014.34 1014.20 1012.81 1011.81 1010.25 1009.63 1009.81 1010.45 1011.12 1011.63 1012.51 1013.09
1007.26 1007.10 1006.44 1006.35 1007.45 1007.89 1007.20 1006.18 1004.59 1003.84 1003.71 1004.02 1004.58 1005.27 1005.61 1006.77 1006.68 1007.64 1007.72 1007.57 1006.90 1007.10 1007.24 1007.94 1008.91 1010.50 1010.42 1010.06 1010.74 1011.35 1011.54 1012.42 1012.96 1013.81 1013.91 1013.49 1011.43 1010.14 1010.07 1010.07 1010.44 1011.28 1011.92 1012.46 1012.99
1006.94 1006.91 1006.83 1006.96 1007.27 1006.60 1006.10 1004.31 1003.67 1003.64 1003.43 1003.56 1003.63 1003.96 1004.55 1005.80 1006.32 1006.99 1006.99 1006.70 1006.16 1006.32 1007.16 1007.48 1008.65 1010.29 1010.17 1009.93 1009.96 1010.21 1010.88 1011.57 1012.61 1013.79 1014.07 1013.54 1011.26 1009.90 1009.92 1009.77 1010.16 1011.08 1011.87 1012.39 1012.89
1006.88 1006.82 1006.99 1006.83 1005.92 1005.10 1004.42 1003.71 1003.32 1003.41 1003.14 1003.13 1003.23 1003.32 1003.85 1004.98 1005.83 1006.43 1006.66 1006.16 1005.73 1005.91 1006.33 1006.96 1008.27 1009.82 1010.42 1010.61 1010.30 1010.20 1010.67 1011.16 1012.02 1012.77 1013.25 1013.10 1011.16 1010.06 1009.77 1009.83 1010.18 1010.84 1011.61 1012.09 1012.75
1006.76 1006.78 1006.79 1006.59 1005.54 1004.90 1004.17 1003.78 1003.35 1003.25 1003.06 1002.61 1002.72 1002.91 1003.70 1004.59 1005.03 1006.20 1006.43 1005.81 1005.66 1005.80 1006.05 1006.46 1007.71 1008.30 1008.73 1008.85 1009.47 1010.23 1010.39 1010.93 1011.38 1012.62 1012.59 1011.89 1010.84 1010.16 1010.09 1010.08 1010.26 1010.69 1011.18 1011.89 1012.80
1006.34 1005.61 1005.18 1005.53 1004.83 1004.32 1003.77 1003.39 1003.15 1002.93 1002.79 1002.40 1002.82 1003.08 1003.48 1004.32 1005.19 1005.76 1005.96 1005.96 1006.02 1006.12 1006.54 1006.80 1007.64 1008.15 1008.37 1008.33 1008.52 1008.92 1009.57 1010.31 1010.92 1010.97 1011.32 1010.86 1010.74 1010.12 1009.80 1009.95 1010.24 1010.60 1011.11 1011.86 1012.73
1005.73 1005.24 1005.14 1004.52 1003.78 1003.79 1003.62 1003.16 1002.90 1002.88 1002.79 1002.79 1002.82 1003.33 1003.08 1003.79 1004.05 1004.83 1005.09 1005.38 1005.71 1006.69 1006.87 1006.97 1007.86 1008.04 1008.73 1008.64 1008.67 1008.96 1009.25 1009.72 1010.18 1010.37 1010.43 1010.38 1010.32 1009.70 1009.84 1010.10 1010.41 1010.73 1011.14 1011.86 1012.78
1005.08 1004.71 1004.50 1004.40 1003.89 1003.75 1003.14 1002.94 1002.90 1002.87 1003.55 1003.21 1003.17 1003.80 1004.22 1004.43 1004.19 1004.42 1004.84 1005.15 1005.40 1006.14 1007.05 1007.76 1007.97 1008.56 1009.21 1009.01 1008.97 1009.16 1008.49 1009.01 1009.41 1009.50 1009.59 1009.97 1009.62 1009.68 1010.29 1010.64 1010.88 1011.18 1011.44 1011.95 1012.73
Thickness
5598 5596 5594 5591 5587 5583 5580 5578 5577 5574 5572 5572 5575 5576 5576 5581 5587 5595 5603 5623 5632 5646 5649 5654 5660 5661 5666 5667 5671 5666 5648 5645 5659 5659 5676 5693 5691 5707 5716 5711 5723 5736 5738 5747 5753
5588 5587 5584 5580 5577 5572 5568 5565 5563 5559 5557 5553 5554 5559 5557 5562 5570 5581 5607 5614 5625 5634 5637 5643 5649 5651 5651 5658 5659 5654 5643 5655 5671 5676 5681 5689 5691 5698 5703 5705 5719 5732 5743 5747 5749
5578 5576 5574 5571 5567 5562 5556 5552 5548 5545 5540 5535 5534 5535 5536 5542 5551 5584 5597 5610 5618 5624 5630 5635 5642 5643 5642 5649 5653 5655 5652 5663 5675 5681 5685 5686 5688 5699 5700 5699 5716 5726 5735 5742 5743
5571 5567 5565 5561 5556 5550 5543 5538 5535 5528 5522 5518 5515 5514 5514 5521 5535 5569 5590 5605 5612 5614 5620 5627 5632 5632 5637 5640 5655 5654 5664 5668 5676 5684 5685 5682 5690 5688 5696 5708 5725 5728 5732 5736 5737
5563 5561 5557 5552 5546 5538 5531 5526 5521 5512 5507 5504 5501 5500 5495 5504 5537 5562 5578 5593 5602 5605 5614 5621 5625 5630 5635 5643 5649 5651 5662 5670 5675 5676 5677 5681 5681 5684 5701 5712 5720 5725 5730 5730 5732
5559 5555 5549 5544 5537 5528 5521 5513 5507 5502 5498 5493 5487 5487 5481 5496 5538 5543 5561 5577 5588 5598 5611 5618 5628 5640 5637 5641 5643 5656 5658 5665 5670 5673 5676 5680 5688 5690 5710 5713 5716 5722 5726 5729 5731
5555 5549 5544 5538 5529 5521 5514 5506 5497 5492 5489 5482 5477 5474 5482 5518 5518 5531 5552 5568 5581 5595 5607 5620 5629 5634 5641 5639 5649 5654 5651 5657 5666 5672 5673 5678 5688 5689 5709 5709 5712 5716 5718 5726 5728
5552 5545 5539 5533 5524 5515 5507 5498 5491 5485 5479 5472 5467 5466 5483 5502 5504 5520 5539 5559 5576 5591 5602 5617 5625 5628 5635 5643 5642 5638 5643 5638 5663 5668 5674 5675 5684 5695 5708 5708 5712 5712 5710 5716 5718
5548 5542 5536 5528 5520 5512 5501 5492 5486 5479 5472 5464 5457 5462 5474 5493 5506 5520 5534 5548 5566 5583 5597 5609 5614 5616 5626 5625 5621 5626 5627 5633 5644 5664 5666 5666 5668 5698 5705 5707 5706 5705 5706 5708 5712
5547 5540 5532 5524 5518 5510 5497 5489 5481 5472 5465 5458 5454 5452 5472 5491 5502 5518 5531 5542 5558 5573 5582 5595 5600 5600 5607 5613 5616 5621 5631 5638 5636 5657 5660 5661 5665 5690 5697 5704 5702 5701 5700 5700 5702
5546 5537 5529 5521 5515 5506 5494 5479 5469 5464 5464 5465 5463 5468 5483 5492 5502 5516 5531 5539 5551 5565 5582 5595 5595 5603 5615 5635 5633 5630 5629 5632 5641 5649 5653 5655 5660 5681 5693 5697 5699 5694 5694 5693 5695
5546 5536 5528 5520 5514 5507 5495 5485 5485 5481 5464 5463 5465 5470 5479 5485 5496 5514 5527 5536 5552 5565 5581 5593 5596 5618 5618 5620 5625 5628 5627 5628 5638 5649 5650 5655 5665 5679 5688 5695 5698 5691 5688 5688 5688
5545 5537 5529 5522 5516 5507 5499 5493 5483 5477 5472 5469 5469 5475 5480 5484 5500 5518 5533 5543 5551 5560 5579 5601 5610 5616 5613 5613 5620 5623 5623 5628 5628 5637 5650 5647 5659 5672 5689 5693 5690 5688 5686 5683 5681
5547 5539 5532 5524 5513 5510 5502 5491 5482 5475 5472 5474 5473 5481 5488 5488 5501 5525 5540 5549 5556 5564 5580 5591 5605 5616 5612 5613 5621 5613 5628 5627 5629 5624 5621 5644 5632 5658 5677 5682 5683 5680 5677 5675 5675
5544 5541 5533 5524 5520 5511 5508 5494 5482 5474 5476 5489 5485 5492 5498 5498 5518 5527 5546 5553 5557 5570 5579 5589 5597 5607 5608 5624 5625 5624 5627 5625 5627 5619 5621 5633 5622 5660 5672 5673 5675 5672 5671 5669 5668
5544 5541 5535 5528 5522 5517 5509 5498 5482 5483 5491 5485 5494 5491 5493 5505 5520 5531 5541 5554 5571 5570 5584 5590 5606 5606 5614 5622 5628 5626 5619 5615 5607 5608 5605 5632 5630 5651 5664 5674 5677 5673 5667 5664 5662
5547 5543 5537 5532 5527 5514 5508 5498 5497 5504 5489 5502 5497 5500 5507 5511 5521 5536 5540 5546 5563 5558 5565 5583 5597 5611 5623 5612 5615 5616 5609 5598 5596 5598 5609 5627 5620 5653 5678 5681 5682 5676 5665 5660 5657
5551 5546 5542 5538 5530 5519 5509 5504 5521 5527 5503 5521 5512 5507 5513 5520 5528 5537 5544 5553 5566 5586 5581 5574 5568 5595 5612 5621 5605 5610 5608 5597 5600 5594 5610 5618 5625 5662 5678 5673 5676 5679 5669 5656 5651
5554 5552 5549 5546 5536 5526 5509 5518 5535 5549 5540 5533 5522 5515 5517 5530 5541 5543 5550 5562 5577 5587 5584 5584 5589 5607 5619 5629 5618 5606 5607 5618 5604 5601 5601 5622 5643 5670 5673 5668 5668 5664 5661 5650 5647
5557 5553 5554 5552 5541 5529 5520 5529 5543 5562 5556 5545 5535 5533 5531 5537 5546 5542 5551 5574 5582 5597 5603 5596 5585 5607 5616 5621 5615 5613 5618 5604 5596 5605 5606 5619 5628 5645 5666 5667 5659 5652 5651 5646 5643
5554 5558 5560 5555 5542 5536 5536 5537 5558 5568 5567 5562 5554 5546 5554 5541 5559 5554 5558 5572 5590 5594 5603 5601 5598 5593 5605 5606 5603 5606 5608 5605 5608 5599 5603 5604 5627 5649 5654 5656 5652 5646 5644 5641 5639
5556 5563 5557 5552 5553 5554 5546 5564 5568 5569 5570 5569 5573 5574 5570 5563 5564 5563 5569 5582 5601 5606 5600 5609 5591 5581 5599 5612 5614 5617 5613 5613 5600 5601 5589 5593 5620 5652 5645 5646 5647 5643 5641 5638 5636
5556 5565 5554 5554 5571 5572 5573 5573 5575 5571 5573 5574 5573 5578 5580 5574 5571 5576 5577 5593 5604 5608 5605 5608 5592 5578 5591 5599 5606 5613 5614 5612 5605 5601 5592 5597 5618 5644 5639 5643 5645 5641 5637 5636 5633
5555 5562 5561 5558 5565 5572 5575 5575 5576 5575 5576 5584 5583 5584 5581 5579 5583 5576 5579 5597 5605 5610 5611 5613 5596 5598 5599 5611 5608 5605 5612 5613 5615 5594 5599 5602 5628 5641 5637 5641 5643 5640 5639 5634 5624
5554 5570 5574 5569 5572 5577 5583 5580 5580 5581 5583 5590 5588 5591 5591 5582 5580 5581 5587 5593 5601 5604 5606 5609 5598 5604 5605 5613 5614 5616 5617 5608 5609 5618 5610 5626 5614 5629 5639 5641 5640 5638 5635 5628 5618
5563 5568 5565 5574 5584 5584 5582 5582 5584 5585 5588 5591 5590 5588 5596 5596 5602 5593 5597 5604 5604 5603 5604 5605 5597 5606 5602 5607 5614 5615 5616 5606 5611 5612 5618 5617 5618 5629 5631 5630 5628 5628 5627 5621 5612
5559 5566 5574 5578 5582 5585 5589 5589 5591 5591 5581 5587 5592 5589 5587 5589 5597 5599 5600 5602 5610 5608 5603 5600 5598 5597 5595 5601 5605 5603 5611 5608 5613 5616 5616 5610 5624 5627 5621 5619 5621 5620 5620 5618 5608